Regional Weather Roundup
Issued by NWS Boston, MA

Current Version | Previous Version | Text Only | Print | Product List | Glossary Off
Versions: 1 2 3 4 5 6 7 8 9 10 11 12 13 14 15 16 17 18 19 20 21 22 23 24 25 26 27 28
000 ASUS41 KBOX 230810 RWRBOX REGIONAL WEATHER ROUNDUP NATIONAL WEATHER SERVICE TAUNTON MA 300 AM EST TUE JAN 23 2018 NOTE: "FAIR" INDICATES FEW OR NO CLOUDS BELOW 12,000 FEET WITH NO SIGNIFICANT WEATHER AND/OR OBSTRUCTIONS TO VISIBILITY. MAZALL-230900- EASTERN MASSACHUSETTS CITY SKY/WX TMP DP RH WIND PRES REMARKS BOSTON DRIZZLE 35 34 96 N8 30.07 FOG WCI 29 BEVERLY CLOUDY 32 31 96 NE10 30.08F FOG WCI 24 LAWRENCE CLOUDY 31 28 89 NE10 30.11F FOG WCI 22 BEDFORD CLOUDY 31 30 96 NE5 30.07F FOG WCI 26 BLUE HILL N/A 37 37 100 NE8 30.04F WCI 31 NORWOOD FOG 38 36 92 NW3 30.07F VSB 3/4 MARSHFIELD CLOUDY 39 39 100 CALM 30.07F FOG PLYMOUTH LGT RAIN 40 39 97 CALM 30.06F VSB 1/4 TAUNTON FOG 37 36 96 CALM 30.05F VSB 1/4 NEW BEDFORD FOG 39 39 100 CALM 30.04F VSB 1/2 $$ MAZALL-230900- CAPE COD AND THE ISLANDS CITY SKY/WX TMP DP RH WIND PRES REMARKS FALMOUTH FOG 43 43 100 SE8 30.07 VSB 1/4 HYANNIS FOG 44 44 100 VRB5 30.06F VSB 1 CHATHAM CLOUDY 45 44 97 S6 30.09F PROVINCETOWN LGT RAIN 41 40 96 S5 30.08F NANTUCKET FOG 43 43 100 SE14 30.08F VSB 3/4 MARTHAS VNYRD CLOUDY N/A N/A N/A S10 30.05F FOG $$ MAZALL-230900- CENTRAL AND WESTERN MASSACHUSETTS CITY SKY/WX TMP DP RH WIND PRES REMARKS WORCESTER FOG 29 28 96 NE7 30.02F VSB 1/4 WCI 22 FITCHBURG CLOUDY 32 30 92 N3 30.09F FOG ORANGE CLOUDY 32 32 100 N3 30.05F FOG SPRINGFIELD CLOUDY 34 34 100 N7 30.01F FOG WCI 28 WESTFIELD CLOUDY 32 32 100 N9 30.03F FOG WCI 24 NORTH ADAMS CLOUDY 36 32 85 E15G23 29.96F WCI 27 PITTSFIELD CLOUDY 34 31 88 NE5 29.94F WCI 30 $$ RIZALL-230900- RHODE ISLAND CITY SKY/WX TMP DP RH WIND PRES REMARKS PROVIDENCE FOG 38 38 100 N6 30.06F VSB 1/4 NEWPORT FOG 41 41 100 E3 30.03F VSB 1/4 BLOCK ISLAND FAIR 46 46 100 S9 30.02F SMITHFIELD LGT RAIN N/A N/A N/A NE5 30.05F VSB 1/4 WESTERLY FOG 43 43 100 NE6 30.01F VSB 1/4 $$ CTZALL-230900- CONNECTICUT CITY SKY/WX TMP DP RH WIND PRES REMARKS BRADLEY INTL DRZL/FOG 34 34 100 N7 30.02F VSB 1/2 WCI 28 HARTFORD FOG 35 35 100 N8 30.03F VSB 1/2 WCI 29 BRIDGEPORT FOG 41 41 100 NE6 29.99F VSB 3/4 DANBURY FOG 39 38 96 E6 29.97F VSB 1/2 GROTON LGT RAIN 45 44 97 NE6 30.00F VSB 1/2 NEW HAVEN FOG 40 39 97 N6 29.99F VSB 1/2 CHESTER FOG 41 41 100 CALM 30.00F VSB<1/4 MERIDEN FOG 35 35 100 N7 30.01F VSB 3/4 WCI 29 WILLIMANTIC FOG 38 37 97 N5 30.02F VSB 1/4 OXFORD LGT RAIN 36 36 100 NE5 29.98F VSB 1/2 $$ MEZ002-015-021-024-NHZ003-005-008-011-012-014-VTZ005-008-230900- NORTHERN NEW ENGLAND CITY SKY/WX TMP DP RH WIND PRES REMARKS PORTLAND ME CLOUDY 22 21 96 N9 30.16F FOG WCI 12 BANGOR ME LGT SNOW 19 16 88 NE7 30.24F FOG WCI 10 CONCORD NH CLOUDY 27 25 92 N6 30.10F FOG WCI 20 MANCHESTER NH FOG 28 26 92 N5 30.10F VSB 1 WCI 23 NASHUA NH LGT SNOW 29 28 96 N5 30.11S FOG WCI 24 PORTSMOUTH NH FRZ DRZL 25 24 94 N6 30.10 FOG WCI 18 JAFFREY NH CLOUDY 28 28 100 CALM 30.03F FOG KEENE NH CLOUDY 30 29 96 N5 30.05F FOG WCI 25 BURLINGTON VT CLOUDY 36 32 85 SE7 29.89F WCI 30 MT. WASHINGTON FRZ DRZL 27 27 100 SW48G55 N/A VSB 0 WCI 7 $$ NYZ052-076-230900- EASTERN NEW YORK CITY SKY/WX TMP DP RH WIND PRES REMARKS ALBANY CLOUDY 39 34 82 S12 29.91F WCI 32 NEW YORK CITY FOG 36 36 100 NE8 29.95F VSB 1/8 WCI 30 $$ ANZALL-230900- MARINE OBSERVATIONS STATION/POSITION TIME TEMP WIND PRES VSBY WAVE AIR SEA DIR/SP/G HT/PER (UTC) (F) (DEG/KT/KT) (MB) (MI) (FT/S) BOSTON BUOY 0750 41 40 30/ 4/ 6 1017.9F 5/ 7 BUZZARDS BAY 0700 42 150/ 11/ 11 1018.5F NANTUCKET SOUND 0750 41 36 160/ 12/ 14 1018.1F 2/ 3 MASS BAY-STELLWA 0704 38 39 1018.6F 5/ 6 ISLE OF SHOALS 0700 28 10/ 4/ 4 1020.0F S OF BLOCK IS 0743 40 N/A 3/ 4 $$ ......................KEY......................... SKY/WX - SKY CONDITION/PRESENT WEATHER TMP - TEMPERATURE IN FAHRENHEIT DWPT - DEWPOINT IN FAHRENHEIT RH - RELATIVE HUMIDITY IN PERCENT WIND - DIRECTION AND SPEED IN MPH PRES - MEAN SEA LEVEL PRESSURE IN INCHES OF HG WCI - WIND CHILL INDEX VSB - VISIBILITY IN MILES HX - HEAT INDEX TC - TEMPERATURE IN CELSIUS VRB - VARIABLE WIND DIRECTION N/A - NOT AVAILABLE

USA.gov is the U.S. government's official web portal to all federal, state and local government web resources and services.